Вернуться в каталог

BREEZE-M R/B

АктивенHEO
NORAD 28656·ROCKET BODY·🇷🇺 Russia

Запущен Mar 15, 2004 с Baikonur Cosmodrome

Loading…

Ближайшие Пролёты (ближайшие 24 часа)

TLE

СвежийSource: Space-Track

Эпоха: Sep 14, 2026, 15:45 UTC

1 28656U 04008C   26257.65649435 -.00000265  00000-0  00000-0 0  9997
2 28656  12.4289 261.3095 6086905  54.0130 348.3851  1.97325674156028

Отслеживайте BREEZE-M R/B в реальном времени с AllMySat

Download on the App Store